DTA747 FNBJ-SBGR

Flight info

Callsign DTA747
Flight time N/A
Altitude 36000
Route BJ056 DCT BJ081 DCT BJ106 DCT UDANO DCT EGMAT DCT BOSNI DCT AVIGI DCT EGOLI DCT APRAS/N0495F380 DCT ILGER DCT ROGOM DCT 20S020W DCT PAKAR/N0487F400 DCT 21S030W DCT AKVET DCT EDMUS
Aircraft B789/H-SDE1E2E3FGHIJ2J3J4J5M1RWXY/LB1D1

Departure

Time 2026-04-17 17:39
Airport Dr. Antonio Agostinho Neto International Airport (FNBJ)

Arrival

Time N/A
Airport São Paulo/Guarulhos–Governor André Franco Montoro International Airport (SBGR)
Time Latitude Longitude Altitude Speed Heading
2026-04-17 17:08 -9.05482 13.49900 544 ft 0 kts 323°
2026-04-17 17:24 -9.05497 13.49911 549 ft 3 kts 323°
2026-04-17 17:24 -9.05513 13.49923 547 ft 3 kts 322°
2026-04-17 17:24 -9.05527 13.49936 550 ft 2 kts 314°
2026-04-17 17:25 -9.05534 13.49944 550 ft 1 kts 293°
2026-04-17 17:25 -9.05535 13.49952 554 ft 1 kts 263°
2026-04-17 17:25 -9.05533 13.49960 553 ft 1 kts 244°
2026-04-17 17:25 -9.05532 13.49962 553 ft 0 kts 242°
2026-04-17 17:27 -9.05533 13.49962 553 ft 0 kts 240°
2026-04-17 17:27 -9.05533 13.49961 553 ft 0 kts 239°
2026-04-17 17:28 -9.05534 13.49959 554 ft 0 kts 238°
2026-04-17 17:28 -9.05537 13.49954 556 ft 1 kts 237°
2026-04-17 17:28 -9.05542 13.49948 554 ft 1 kts 236°
2026-04-17 17:28 -9.05544 13.49944 551 ft 0 kts 236°
2026-04-17 17:29 -9.05547 13.49940 550 ft 4 kts 236°
2026-04-17 17:29 -9.05572 13.49906 544 ft 7 kts 231°
2026-04-17 17:29 -9.05610 13.49860 545 ft 10 kts 231°
2026-04-17 17:29 -9.05652 13.49801 544 ft 9 kts 235°
2026-04-17 17:30 -9.05693 13.49767 544 ft 6 kts 190°
2026-04-17 17:30 -9.05727 13.49776 544 ft 6 kts 153°
2026-04-17 17:30 -9.05773 13.49806 541 ft 10 kts 144°
2026-04-17 17:30 -9.05834 13.49855 544 ft 13 kts 143°
2026-04-17 17:31 -9.05902 13.49906 544 ft 10 kts 144°
2026-04-17 17:31 -9.05962 13.49950 545 ft 12 kts 143°
2026-04-17 17:31 -9.06021 13.49999 547 ft 10 kts 136°
2026-04-17 17:31 -9.06036 13.50052 547 ft 7 kts 73°
2026-04-17 17:32 -9.06011 13.50106 547 ft 10 kts 59°
2026-04-17 17:32 -9.05963 13.50172 547 ft 13 kts 51°
2026-04-17 17:32 -9.05898 13.50253 548 ft 17 kts 54°
2026-04-17 17:32 -9.05829 13.50354 548 ft 18 kts 54°
2026-04-17 17:33 -9.05757 13.50450 558 ft 17 kts 52°
2026-04-17 17:33 -9.05685 13.50547 557 ft 17 kts 54°
2026-04-17 17:33 -9.05614 13.50645 558 ft 17 kts 52°
2026-04-17 17:33 -9.05541 13.50740 559 ft 17 kts 54°
2026-04-17 17:34 -9.05469 13.50837 559 ft 17 kts 55°
2026-04-17 17:34 -9.05399 13.50939 558 ft 18 kts 54°
2026-04-17 17:34 -9.05324 13.51042 556 ft 18 kts 52°
2026-04-17 17:34 -9.05245 13.51145 555 ft 19 kts 54°
2026-04-17 17:35 -9.05168 13.51251 559 ft 19 kts 55°
2026-04-17 17:35 -9.05092 13.51354 559 ft 18 kts 54°
2026-04-17 17:35 -9.05017 13.51458 559 ft 18 kts 53°
2026-04-17 17:35 -9.04942 13.51562 560 ft 18 kts 54°
2026-04-17 17:36 -9.04872 13.51654 561 ft 16 kts 53°
2026-04-17 17:36 -9.04816 13.51734 562 ft 15 kts 56°
2026-04-17 17:36 -9.04808 13.51812 563 ft 7 kts 128°
2026-04-17 17:36 -9.04825 13.51828 570 ft 0 kts 145°
2026-04-17 17:37 -9.04844 13.51839 568 ft 7 kts 152°
2026-04-17 17:37 -9.04916 13.51873 569 ft 14 kts 158°
2026-04-17 17:37 -9.04944 13.51873 570 ft 1 kts 219°
2026-04-17 17:38 -9.04947 13.51869 568 ft 1 kts 228°
2026-04-17 17:38 -9.04950 13.51865 567 ft 1 kts 231°
2026-04-17 17:38 -9.04988 13.51812 572 ft 31 kts 234°
2026-04-17 17:38 -9.05252 13.51454 569 ft 96 kts 233°
2026-04-17 17:39 -9.05779 13.50746 567 ft 153 kts 233°
2026-04-17 17:39 -9.06495 13.49771 757 ft 186 kts 239°
2026-04-17 17:39 -9.07257 13.48812 2009 ft 155 kts 227°
2026-04-17 17:39 -9.07965 13.47984 2644 ft 176 kts 228°
2026-04-17 17:40 -9.08819 13.46907 3061 ft 199 kts 227°
2026-04-17 17:40 -9.09669 13.45935 4348 ft 171 kts 226°
2026-04-17 17:40 -9.10445 13.44958 4873 ft 191 kts 232°
2026-04-17 17:40 -9.11271 13.43777 5237 ft 220 kts 232°
2026-04-17 17:41 -9.12330 13.42541 5627 ft 245 kts 214°
2026-04-17 17:41 -9.13997 13.42063 6065 ft 263 kts 174°
2026-04-17 17:41 -9.15711 13.42760 6622 ft 273 kts 134°
2026-04-17 17:41 -9.16655 13.44369 7545 ft 275 kts 101°
2026-04-17 17:42 -9.16525 13.46289 8397 ft 280 kts 66°
2026-04-17 17:42 -9.15411 13.47954 9204 ft 288 kts 53°
2026-04-17 17:42 -9.14729 13.49828 10095 ft 289 kts 89°
2026-04-17 17:42 -9.15164 13.51857 10571 ft 310 kts 120°
2026-04-17 17:43 -9.16661 13.53506 10933 ft 333 kts 148°
2026-04-17 17:43 -9.18854 13.54347 11234 ft 356 kts 172°
2026-04-17 17:43 -9.21397 13.54237 11459 ft 380 kts 194°
2026-04-17 17:43 -9.23866 13.53192 12057 ft 388 kts 207°
2026-04-17 17:44 -9.26255 13.51897 12804 ft 393 kts 209°
2026-04-17 17:44 -9.28661 13.50551 13575 ft 397 kts 208°
2026-04-17 17:44 -9.31111 13.49221 14236 ft 402 kts 208°
2026-04-17 17:44 -9.33604 13.47894 14919 ft 407 kts 208°
2026-04-17 17:45 -9.36115 13.46541 15572 ft 411 kts 208°
2026-04-17 17:45 -9.38653 13.45159 16216 ft 416 kts 208°
2026-04-17 17:45 -9.41220 13.43766 16839 ft 421 kts 208°
2026-04-17 17:45 -9.43821 13.42363 17465 ft 425 kts 208°
2026-04-17 17:46 -9.46446 13.40945 18066 ft 430 kts 208°
2026-04-17 17:46 -9.49093 13.39511 18593 ft 433 kts 208°
2026-04-17 17:46 -9.51757 13.38068 19145 ft 435 kts 208°
2026-04-17 17:46 -9.54434 13.36619 19694 ft 438 kts 208°
2026-04-17 17:47 -9.57128 13.35160 20225 ft 440 kts 208°
2026-04-17 17:47 -9.59834 13.33695 20748 ft 442 kts 208°
2026-04-17 17:47 -9.62554 13.32221 21277 ft 444 kts 208°
2026-04-17 17:47 -9.65284 13.30742 21780 ft 447 kts 208°
2026-04-17 17:48 -9.68034 13.29252 22274 ft 449 kts 208°
2026-04-17 17:48 -9.70796 13.27755 22767 ft 452 kts 208°
2026-04-17 17:48 -9.73576 13.26248 23216 ft 454 kts 208°
2026-04-17 17:48 -9.76369 13.24733 23636 ft 456 kts 208°
2026-04-17 17:49 -9.79175 13.23211 24025 ft 458 kts 208°
2026-04-17 17:49 -9.81992 13.21683 24398 ft 460 kts 208°
2026-04-17 17:49 -9.84821 13.20148 24766 ft 462 kts 208°
2026-04-17 17:49 -9.87664 13.18606 25124 ft 464 kts 208°
2026-04-17 17:50 -9.90518 13.17056 25489 ft 466 kts 208°
2026-04-17 17:50 -9.93385 13.15500 25843 ft 468 kts 208°
2026-04-17 17:50 -9.96261 13.13939 26205 ft 470 kts 208°
2026-04-17 17:50 -9.99152 13.12368 26552 ft 472 kts 208°
2026-04-17 17:51 -10.02055 13.10791 26883 ft 474 kts 208°
2026-04-17 17:51 -10.04930 13.09229 27222 ft 476 kts 208°
2026-04-17 17:51 -10.07856 13.07640 27564 ft 478 kts 208°
2026-04-17 17:51 -10.10795 13.06042 27887 ft 480 kts 208°
2026-04-17 17:52 -10.13698 13.04372 28198 ft 481 kts 215°
2026-04-17 17:52 -10.16282 13.02213 28508 ft 483 kts 226°
2026-04-17 17:52 -10.18428 12.99576 28812 ft 486 kts 236°
2026-04-17 17:52 -10.20152 12.96611 29065 ft 489 kts 239°
2026-04-17 17:53 -10.21830 12.93613 29403 ft 490 kts 240°
2026-04-17 17:53 -10.23499 12.90584 29680 ft 492 kts 240°
2026-04-17 17:53 -10.25180 12.87535 29815 ft 496 kts 240°
2026-04-17 17:54 -10.28576 12.81435 30124 ft 495 kts 239°
2026-04-17 17:54 -10.30266 12.78383 30370 ft 497 kts 240°
2026-04-17 17:54 -10.31962 12.75316 30600 ft 498 kts 240°
2026-04-17 17:54 -10.33663 12.72247 30828 ft 500 kts 240°
2026-04-17 17:55 -10.35371 12.69167 31035 ft 501 kts 240°
2026-04-17 17:55 -10.37079 12.66083 31340 ft 501 kts 240°
2026-04-17 17:55 -10.38782 12.63004 31658 ft 500 kts 240°
2026-04-17 17:55 -10.40485 12.59928 31965 ft 499 kts 240°
2026-04-17 17:56 -10.42183 12.56859 32292 ft 498 kts 240°
2026-04-17 17:56 -10.43878 12.53796 32599 ft 497 kts 240°
2026-04-17 17:56 -10.45566 12.50742 32923 ft 496 kts 240°
2026-04-17 17:56 -10.47254 12.47687 33201 ft 496 kts 240°
2026-04-17 17:57 -10.48941 12.44635 33487 ft 495 kts 240°
2026-04-17 17:57 -10.50628 12.41583 33773 ft 495 kts 240°
2026-04-17 17:57 -10.52310 12.38539 34028 ft 495 kts 240°
2026-04-17 17:57 -10.53992 12.35491 34279 ft 494 kts 240°
2026-04-17 17:58 -10.55674 12.32444 34555 ft 493 kts 240°
2026-04-17 17:58 -10.57351 12.29408 34820 ft 493 kts 240°
2026-04-17 17:58 -10.59026 12.26370 35108 ft 491 kts 240°
2026-04-17 17:58 -10.60695 12.23345 35387 ft 491 kts 240°
2026-04-17 17:59 -10.62363 12.20320 35612 ft 491 kts 240°
2026-04-17 17:59 -10.64029 12.17298 35816 ft 491 kts 240°
2026-04-17 17:59 -10.65707 12.14254 35808 ft 494 kts 240°
2026-04-17 18:00 -10.69051 12.08183 35808 ft 490 kts 240°
2026-04-17 18:00 -10.72375 12.02146 35821 ft 489 kts 240°
2026-04-17 18:01 -10.75384 11.95965 35843 ft 489 kts 252°
2026-04-17 18:01 -10.76150 11.92588 35849 ft 492 kts 263°
2026-04-17 18:01 -10.76435 11.89164 35828 ft 494 kts 264°
2026-04-17 18:02 -10.76898 11.82198 35832 ft 494 kts 265°
2026-04-17 18:02 -10.77365 11.75231 35831 ft 494 kts 264°
2026-04-17 18:03 -10.77830 11.68256 35831 ft 494 kts 264°
2026-04-17 18:03 -10.78293 11.61283 35835 ft 494 kts 264°
2026-04-17 18:04 -10.78756 11.54303 35836 ft 495 kts 264°
2026-04-17 18:04 -10.79217 11.47320 35834 ft 495 kts 264°
2026-04-17 18:05 -10.79677 11.40328 35836 ft 496 kts 264°
2026-04-17 18:05 -10.80135 11.33332 35839 ft 496 kts 264°
2026-04-17 18:06 -10.80593 11.26338 35840 ft 496 kts 264°
2026-04-17 18:06 -10.81048 11.19332 35840 ft 496 kts 264°
2026-04-17 18:07 -10.81503 11.12331 35840 ft 496 kts 264°
2026-04-17 18:07 -10.81955 11.05330 35844 ft 497 kts 264°
2026-04-17 18:08 -10.82408 10.98310 35843 ft 497 kts 264°
2026-04-17 18:08 -10.82857 10.91303 35841 ft 497 kts 264°
2026-04-17 18:09 -10.83304 10.84332 35845 ft 497 kts 264°
2026-04-17 18:09 -10.83754 10.77263 35846 ft 497 kts 264°
2026-04-17 18:10 -10.84196 10.70300 35847 ft 497 kts 264°
2026-04-17 18:10 -10.84641 10.63277 35850 ft 497 kts 264°
2026-04-17 18:11 -10.85083 10.56250 35849 ft 498 kts 264°
2026-04-17 18:11 -10.85526 10.49223 35849 ft 498 kts 264°
2026-04-17 18:12 -10.85966 10.42188 35848 ft 498 kts 264°
2026-04-17 18:12 -10.86405 10.35152 35850 ft 498 kts 264°
2026-04-17 18:13 -10.86841 10.28122 35852 ft 498 kts 264°
2026-04-17 18:13 -10.87204 10.22270 35854 ft 498 kts 264°
2026-04-17 18:14 -10.87638 10.15235 35857 ft 499 kts 264°
2026-04-17 18:14 -10.88071 10.08189 35856 ft 500 kts 264°
2026-04-17 18:15 -10.88504 10.01136 35857 ft 499 kts 264°
2026-04-17 18:15 -10.88933 9.94090 35855 ft 498 kts 264°
2026-04-17 18:16 -10.89361 9.87063 35856 ft 497 kts 264°
2026-04-17 18:16 -10.89786 9.80041 35854 ft 498 kts 264°
2026-04-17 18:17 -10.90211 9.73006 35854 ft 498 kts 264°
2026-04-17 18:17 -10.90845 9.62444 35855 ft 498 kts 264°
2026-04-17 18:18 -10.91265 9.55407 35852 ft 498 kts 264°
2026-04-17 18:18 -10.91684 9.48377 35860 ft 498 kts 264°
2026-04-17 18:19 -10.92102 9.41330 35862 ft 499 kts 265°
2026-04-17 18:19 -10.92519 9.34280 35864 ft 499 kts 265°
2026-04-17 18:20 -10.92931 9.27274 35864 ft 499 kts 265°
2026-04-17 18:20 -10.93345 9.20219 35863 ft 500 kts 265°
2026-04-17 18:21 -10.93758 9.13145 35865 ft 501 kts 265°
2026-04-17 18:21 -10.94170 9.06062 35868 ft 501 kts 265°
2026-04-17 18:22 -10.94580 8.98981 35867 ft 501 kts 265°
2026-04-17 18:22 -10.94988 8.91901 35869 ft 502 kts 265°
2026-04-17 18:23 -10.95396 8.84812 35867 ft 501 kts 265°
2026-04-17 18:23 -10.95801 8.77728 35870 ft 501 kts 265°
2026-04-17 18:24 -10.96204 8.70654 35871 ft 501 kts 265°
2026-04-17 18:24 -10.96606 8.63573 35870 ft 501 kts 265°
2026-04-17 18:25 -10.97007 8.56491 35871 ft 501 kts 265°
2026-04-17 18:25 -10.97403 8.49454 35870 ft 502 kts 265°
2026-04-17 18:26 -10.97800 8.42364 35871 ft 502 kts 265°
2026-04-17 18:26 -10.98196 8.35278 35872 ft 502 kts 265°
2026-04-17 18:27 -10.98590 8.28187 35869 ft 502 kts 265°
2026-04-17 18:27 -10.98982 8.21103 35872 ft 501 kts 265°
2026-04-17 18:28 -10.99374 8.14014 35871 ft 502 kts 265°
2026-04-17 18:28 -10.99779 8.06924 35876 ft 500 kts 261°
2026-04-17 18:29 -11.00452 8.03470 35892 ft 497 kts 250°
2026-04-17 18:29 -11.01669 8.00186 35872 ft 497 kts 246°
2026-04-17 18:29 -11.04298 7.93677 35876 ft 497 kts 246°
2026-04-17 18:30 -11.06918 7.87165 35875 ft 497 kts 246°
2026-04-17 18:30 -11.09536 7.80659 35878 ft 497 kts 246°
2026-04-17 18:31 -11.12157 7.74143 35879 ft 497 kts 246°
2026-04-17 18:31 -11.14770 7.67634 35880 ft 496 kts 246°
2026-04-17 18:32 -11.17383 7.61128 35882 ft 496 kts 246°
2026-04-17 18:32 -11.19978 7.54658 35878 ft 496 kts 246°
2026-04-17 18:33 -11.22585 7.48156 35878 ft 496 kts 246°
2026-04-17 18:33 -11.25188 7.41660 35882 ft 496 kts 246°
2026-04-17 18:34 -11.27791 7.35157 35882 ft 495 kts 246°
2026-04-17 18:34 -11.30388 7.28665 35884 ft 495 kts 246°
2026-04-17 18:35 -11.32981 7.22178 35883 ft 494 kts 246°
2026-04-17 18:35 -11.35572 7.15693 35887 ft 494 kts 246°
2026-04-17 18:36 -11.38159 7.09213 35888 ft 493 kts 246°
2026-04-17 18:36 -11.40738 7.02746 35887 ft 492 kts 246°
2026-04-17 18:37 -11.43309 6.96297 35888 ft 490 kts 246°
2026-04-17 18:37 -11.45876 6.89850 35886 ft 491 kts 246°
2026-04-17 18:38 -11.48444 6.83399 35889 ft 491 kts 246°
2026-04-17 18:38 -11.51011 6.76945 35888 ft 491 kts 246°
2026-04-17 18:39 -11.53575 6.70494 35889 ft 490 kts 246°
2026-04-17 18:39 -11.56132 6.64054 35893 ft 490 kts 246°
2026-04-17 18:40 -11.58671 6.57655 35892 ft 490 kts 246°
2026-04-17 18:40 -11.61222 6.51222 35890 ft 489 kts 246°
2026-04-17 18:41 -11.63772 6.44788 35891 ft 489 kts 246°
2026-04-17 18:41 -11.66318 6.38359 35889 ft 489 kts 246°
2026-04-17 18:42 -11.68861 6.31929 35891 ft 488 kts 246°
2026-04-17 18:42 -11.71401 6.25506 35891 ft 488 kts 246°
2026-04-17 18:43 -11.73938 6.19083 35891 ft 488 kts 247°
2026-04-17 18:43 -11.76468 6.12677 35891 ft 486 kts 247°
2026-04-17 18:44 -11.78996 6.06267 35895 ft 487 kts 247°
2026-04-17 18:44 -11.81523 5.99855 35896 ft 487 kts 247°
2026-04-17 18:45 -11.84048 5.93446 35894 ft 487 kts 247°
2026-04-17 18:45 -11.86570 5.87038 35893 ft 486 kts 247°
2026-04-17 18:46 -11.89088 5.80634 35895 ft 486 kts 247°
2026-04-17 18:46 -11.91603 5.74236 35894 ft 485 kts 247°
2026-04-17 18:47 -11.94115 5.67840 35894 ft 485 kts 247°
2026-04-17 18:47 -11.96623 5.61448 35898 ft 485 kts 247°
2026-04-17 18:48 -11.99109 5.55108 35896 ft 484 kts 247°
2026-04-17 18:48 -12.01614 5.48713 35898 ft 484 kts 247°
2026-04-17 18:49 -12.04112 5.42334 35896 ft 484 kts 248°
2026-04-17 18:49 -12.06608 5.35951 35897 ft 483 kts 248°
2026-04-17 18:50 -12.09100 5.29578 35897 ft 483 kts 248°
2026-04-17 18:50 -12.11591 5.23201 35899 ft 483 kts 248°
2026-04-17 18:51 -12.14078 5.16826 35902 ft 482 kts 248°
2026-04-17 18:51 -12.16562 5.10458 35900 ft 482 kts 248°
2026-04-17 18:52 -12.19041 5.04097 35900 ft 481 kts 248°
2026-04-17 18:52 -12.21515 4.97743 35900 ft 481 kts 248°
2026-04-17 18:53 -12.23988 4.91388 35900 ft 481 kts 248°
2026-04-17 18:53 -12.26459 4.85032 35902 ft 481 kts 248°
2026-04-17 18:54 -12.28925 4.78685 35904 ft 480 kts 248°
2026-04-17 18:54 -12.31386 4.72344 35901 ft 480 kts 248°
2026-04-17 18:55 -12.33846 4.66002 35900 ft 479 kts 248°
2026-04-17 18:55 -12.36302 4.59667 35899 ft 479 kts 248°
2026-04-17 18:56 -12.38756 4.53330 35900 ft 479 kts 248°
2026-04-17 18:56 -12.41206 4.46998 35901 ft 479 kts 248°
2026-04-17 18:57 -12.43659 4.40653 35902 ft 480 kts 248°
2026-04-17 18:57 -12.46093 4.34354 35902 ft 479 kts 248°
2026-04-17 18:58 -12.48538 4.28021 35903 ft 478 kts 248°
2026-04-17 18:58 -12.50972 4.21711 35907 ft 476 kts 248°
2026-04-17 18:59 -12.53404 4.15401 35905 ft 477 kts 248°
2026-04-17 18:59 -12.55834 4.09093 35907 ft 476 kts 248°
2026-04-17 19:00 -12.58259 4.02793 35909 ft 475 kts 248°
2026-04-17 19:00 -12.60675 3.96509 35902 ft 474 kts 248°
2026-04-17 19:01 -12.63088 3.90230 35902 ft 474 kts 249°
2026-04-17 19:01 -12.65094 3.85007 35906 ft 474 kts 249°
2026-04-17 19:02 -12.67500 3.78735 35910 ft 473 kts 249°
2026-04-17 19:02 -12.69907 3.72459 35912 ft 474 kts 249°
2026-04-17 19:03 -12.72314 3.66175 35910 ft 474 kts 249°
2026-04-17 19:03 -12.74716 3.59898 35914 ft 473 kts 249°
2026-04-17 19:04 -12.77115 3.53628 35911 ft 472 kts 249°
2026-04-17 19:04 -12.79507 3.47368 35914 ft 472 kts 249°
2026-04-17 19:05 -12.81899 3.41104 35917 ft 472 kts 249°
2026-04-17 19:05 -12.84288 3.34842 35918 ft 472 kts 249°
2026-04-17 19:06 -12.86679 3.28569 35920 ft 472 kts 249°
2026-04-17 19:06 -12.89067 3.22300 35921 ft 472 kts 249°
2026-04-17 19:07 -12.91449 3.16041 35918 ft 471 kts 249°
2026-04-17 19:07 -12.93826 3.09791 35921 ft 471 kts 249°
2026-04-17 19:08 -12.96205 3.03530 35920 ft 471 kts 249°
2026-04-17 19:08 -12.98580 2.97275 35922 ft 470 kts 249°
2026-04-17 19:09 -13.00935 2.91067 35924 ft 470 kts 249°
2026-04-17 19:09 -13.03322 2.84771 35925 ft 471 kts 249°
2026-04-17 19:10 -13.05672 2.78564 35927 ft 470 kts 249°
2026-04-17 19:10 -13.08034 2.72325 35926 ft 469 kts 249°
2026-04-17 19:11 -13.10392 2.66087 35926 ft 469 kts 249°
2026-04-17 19:11 -13.12750 2.59848 35930 ft 469 kts 249°
2026-04-17 19:12 -13.15106 2.53605 35932 ft 469 kts 249°
2026-04-17 19:12 -13.17461 2.47362 35930 ft 469 kts 249°
2026-04-17 19:13 -13.19811 2.41125 35929 ft 469 kts 249°
2026-04-17 19:13 -13.22159 2.34889 35929 ft 468 kts 249°
2026-04-17 19:14 -13.24499 2.28670 35932 ft 467 kts 249°
2026-04-17 19:14 -13.26841 2.22440 35933 ft 468 kts 249°
2026-04-17 19:15 -13.29182 2.16207 35935 ft 468 kts 249°
2026-04-17 19:15 -13.31506 2.10014 35936 ft 468 kts 249°
2026-04-17 19:16 -13.33843 2.03783 35936 ft 468 kts 249°
2026-04-17 19:16 -13.36179 1.97547 35937 ft 467 kts 249°
2026-04-17 19:17 -13.38510 1.91320 35937 ft 467 kts 249°
2026-04-17 19:17 -13.40839 1.85094 35935 ft 466 kts 249°
2026-04-17 19:18 -13.43177 1.78837 35937 ft 466 kts 249°
2026-04-17 19:18 -13.45484 1.72659 35934 ft 466 kts 249°
2026-04-17 19:19 -13.47803 1.66442 35940 ft 466 kts 249°
2026-04-17 19:19 -13.50121 1.60223 35935 ft 466 kts 249°
2026-04-17 19:20 -13.52441 1.53995 35936 ft 466 kts 249°
2026-04-17 19:20 -13.54758 1.47768 35936 ft 467 kts 249°
2026-04-17 19:21 -13.57071 1.41538 35937 ft 466 kts 249°
2026-04-17 19:21 -13.59379 1.35311 35937 ft 466 kts 249°
2026-04-17 19:22 -13.61683 1.29095 35939 ft 465 kts 249°
2026-04-17 19:22 -13.63982 1.22882 35940 ft 465 kts 249°
2026-04-17 19:23 -13.65892 1.17719 35939 ft 465 kts 249°